Waarnemingen

Advertentie
Mijn weer
Socoa, Frankrijk (7600): temperatuur & dauwpunt: 22.04.2017 02:00:00 - 28.04.2017 02:00:00 (CEST)Socoa, Frankrijk (7600): windsnelheid & windstoten: 22.04.2017 02:00:00 - 28.04.2017 02:00:00 (CEST)Socoa, Frankrijk (7600): windrichting: 22.04.2017 02:00:00 - 28.04.2017 02:00:00 (CEST)Socoa, Frankrijk (7600): luchtdruk: 22.04.2017 02:00:00 - 28.04.2017 02:00:00 (CEST)Socoa, Frankrijk (7600): zicht: 22.04.2017 02:00:00 - 28.04.2017 02:00:00 (CEST)Socoa, Frankrijk (7600): neerslag: 22.04.2017 02:00:00 - 28.04.2017 02:00:00 (CEST)
Datum & Tijd tt [°C] td [°C] ff [km/u] ff [kn] fx [km/u] fx [kn] dd ppp [hPa] vv [km] rr [mm]
28.04.2017 02:00:00 10,3 0,9 16 9 28 15 N 1022,6 25 0,0
28.04.2017 01:00:00 10,4 1,0 15 8 29 15 N 1022,7 - 0,0
28.04.2017 00:00:00 10,4 1,0 18 10 34 18 N 1022,8 - 0,0
27.04.2017 23:00:00 10,5 1,0 18 10 34 18 NNW 1022,8 25 0,0
27.04.2017 22:00:00 10,5 0,5 17 9 36 19 N 1022,4 - 0,0
27.04.2017 21:00:00 10,5 1,0 18 10 38 21 N 1021,7 - 0,0
27.04.2017 20:00:00 10,7 0,7 16 9 39 21 N 1021,4 25 0,0
27.04.2017 19:00:00 11,2 2,2 22 12 38 20 N 1020,9 - 0,0
27.04.2017 18:00:00 12,2 1,8 23 12 36 20 N 1020,6 - 0,0
27.04.2017 17:00:00 12,0 2,2 25 13 41 22 NNW 1020,4 20 0,0
27.04.2017 16:00:00 11,7 1,9 29 15 40 21 NNW 1020,5 - 0,0
27.04.2017 15:00:00 12,3 1,9 23 12 36 20 N 1020,2 - 0,0
27.04.2017 14:00:00 11,9 2,3 21 11 32 17 N 1020,0 20 0,0
27.04.2017 13:00:00 12,2 2,6 17 9 25 14 N 1020,1 - 0,0
27.04.2017 12:00:00 11,8 3,0 13 7 21 12 NNO 1020,1 - 0,0
27.04.2017 11:00:00 11,3 3,6 13 7 20 11 NNO 1019,8 20 0,0
27.04.2017 10:00:00 10,6 2,4 13 7 20 11 NNO 1019,4 - 0,0
27.04.2017 09:00:00 7,6 4,4 3 2 8 4 ZW 1019,0 - 0,0
27.04.2017 08:00:00 3,8 1,8 4 2 10 6 ZZW 1018,6 20 0,0
27.04.2017 07:00:00 3,9 1,4 6 3 16 9 ZZO 1018,0 - 0,0
27.04.2017 06:00:00 4,3 1,3 8 4 20 11 ZZO 1017,8 - 0,0
27.04.2017 05:00:00 5,2 0,8 10 5 26 14 ZO 1017,8 - 0,0
27.04.2017 04:00:00 5,7 0,6 7 4 22 12 Z 1018,1 - 0,0
27.04.2017 03:00:00 6,9 1,0 12 7 26 14 O 1018,0 - 0,0
27.04.2017 02:00:00 8,8 1,2 23 12 40 22 ONO 1018,4 - 0,0
27.04.2017 01:00:00 10,3 -0,5 27 15 38 20 N 1017,8 - 0,0
27.04.2017 00:00:00 10,1 -1,0 21 12 32 18 N 1018,4 - 0,0
26.04.2017 23:00:00 9,8 -0,1 19 11 35 19 N 1018,6 25 0,0
26.04.2017 22:00:00 10,0 0,6 19 10 34 18 NNW 1018,3 - 0,0
26.04.2017 21:00:00 10,2 1,3 22 12 39 21 NNW 1017,7 - 0,0
26.04.2017 20:00:00 10,6 1,7 23 12 37 20 N 1017,2 25 0,0
26.04.2017 19:00:00 10,9 3,7 11 6 22 12 WNW 1016,9 - 0,0
26.04.2017 18:00:00 12,1 4,3 17 9 26 14 WNW 1016,5 - 0,0
26.04.2017 17:00:00 12,0 3,2 13 7 23 12 NNW 1016,8 - 0,0
26.04.2017 16:00:00 12,3 2,4 12 6 31 17 N 1017,0 - 0,0
26.04.2017 15:00:00 12,2 3,4 21 11 30 16 N 1016,7 - 0,0
26.04.2017 14:00:00 11,5 2,8 17 9 28 15 N 1016,4 20 0,0
26.04.2017 13:00:00 12,1 3,8 12 7 21 11 NNO 1016,2 - 0,0
26.04.2017 12:00:00 11,8 3,0 9 5 27 14 ONO 1016,0 - 0,0
26.04.2017 11:00:00 10,6 5,1 18 10 28 15 ONO 1015,5 - 0,0
26.04.2017 10:00:00 8,5 5,9 15 8 24 13 O 1015,4 - 0,0
26.04.2017 09:00:00 8,0 6,8 12 6 19 11 ZO 1014,8 - 2,0
26.04.2017 08:00:00 8,0 6,6 9 5 19 10 ZZO 1013,9 - 0,2
26.04.2017 07:00:00 8,5 6,3 16 8 34 18 NO 1013,5 - 0,2
26.04.2017 06:00:00 8,3 6,3 29 15 46 25 NNO 1013,4 - 1,8
26.04.2017 05:00:00 8,7 7,3 35 19 50 27 N 1012,9 15 3,5
26.04.2017 04:00:00 9,2 7,8 43 23 61 33 N 1011,8 - 0,6
26.04.2017 03:00:00 10,2 8,8 44 24 55 30 N 1011,1 - 1,6
26.04.2017 02:00:00 11,4 9,0 20 11 28 15 NO 1011,1 - 0,4
26.04.2017 01:00:00 11,7 8,2 14 7 27 14 NO 1011,1 - 0,0
26.04.2017 00:00:00 11,5 8,4 21 11 36 19 NNO 1011,4 - 0,0
25.04.2017 23:00:00 12,0 8,8 26 14 34 18 NNO 1011,8 - 0,0
25.04.2017 22:00:00 12,4 9,6 19 10 32 18 N 1011,1 - 0,0
25.04.2017 21:00:00 12,5 9,9 16 9 33 18 N 1010,5 - 0,0
25.04.2017 20:00:00 12,5 10,4 19 11 27 15 NNW 1010,2 - 1,2
25.04.2017 19:00:00 12,6 10,7 17 9 29 16 WNW 1009,9 - 0,2
25.04.2017 18:00:00 12,2 10,1 14 8 22 12 ZZW 1009,6 - 0,2
25.04.2017 17:00:00 12,4 10,6 16 9 29 16 WZW 1010,0 - 1,4
25.04.2017 16:00:00 12,3 8,4 18 10 41 22 W 1010,1 20 4,5
25.04.2017 15:00:00 13,0 9,3 35 19 46 25 WNW 1009,9 - 0,6
25.04.2017 14:00:00 16,9 9,3 9 5 16 9 W 1009,5 20 0,0
25.04.2017 13:00:00 14,0 8,6 9 5 23 12 NW 1010,2 - 0,2
25.04.2017 12:00:00 14,3 9,7 14 7 22 12 N 1009,8 - 0,0
25.04.2017 11:00:00 15,0 10,4 3 2 9 5 NNW 1009,7 - 0,0
25.04.2017 10:00:00 14,0 10,6 5 3 10 5 Z 1010,1 - 0,0
25.04.2017 09:00:00 13,8 9,8 3 2 23 13 ZZW 1010,4 - 0,0
25.04.2017 08:00:00 12,8 8,7 12 6 23 12 NNW 1010,7 15 0,0
25.04.2017 07:00:00 12,4 8,9 14 7 18 10 ZO 1009,7 - 0,0
25.04.2017 06:00:00 12,3 8,9 7 4 17 9 ZZO 1010,4 - 0,0
25.04.2017 05:00:00 12,8 9,6 10 5 16 9 ZZO 1010,5 - 0,0
25.04.2017 04:00:00 14,0 11,3 11 6 30 16 NW 1011,9 - 0,0
25.04.2017 03:00:00 12,8 10,0 7 4 13 7 WNW 1012,3 - 0,0
25.04.2017 02:00:00 13,2 9,4 4 2 25 13 OZO 1012,3 - 0,0
25.04.2017 01:00:00 14,0 10,8 16 9 26 14 W 1013,2 - 0,0
25.04.2017 00:00:00 13,4 10,0 14 7 19 11 W 1013,6 - 0,0
24.04.2017 23:00:00 14,0 10,8 14 7 20 11 W 1013,4 20 0,0
24.04.2017 22:00:00 14,1 11,1 12 7 15 8 WNW 1013,4 - 0,0
24.04.2017 21:00:00 14,6 10,8 8 4 13 7 W 1013,1 - 0,0
24.04.2017 20:00:00 16,0 10,1 9 5 13 7 NW 1013,1 18 0,0
24.04.2017 19:00:00 17,5 10,4 9 5 13 7 NW 1013,2 - 0,0
24.04.2017 18:00:00 17,9 10,5 7 4 12 7 NNW 1013,2 - 0,0
24.04.2017 17:00:00 17,9 10,0 8 4 18 10 N 1013,6 - 0,0
24.04.2017 16:00:00 17,8 8,6 13 7 16 9 N 1014,2 - 0,0
24.04.2017 15:00:00 18,2 12,0 11 6 18 10 N 1014,5 - 0,0
24.04.2017 14:00:00 17,6 11,8 12 6 17 9 NNW 1014,9 - 0,0
24.04.2017 13:00:00 16,9 11,0 13 7 16 9 NNW 1015,7 - 0,0
24.04.2017 12:00:00 18,3 11,6 5 3 9 5 NW 1016,0 - 0,0
24.04.2017 11:00:00 17,5 10,1 6 3 8 5 NW 1016,3 20 0,0
24.04.2017 10:00:00 15,2 8,7 4 2 7 4 NW 1016,3 - 0,0
24.04.2017 09:00:00 11,7 7,8 3 2 8 4 ZZW 1016,2 - 0,0
24.04.2017 08:00:00 8,1 5,9 5 3 11 6 Z 1016,4 20 0,0
24.04.2017 07:00:00 7,9 5,4 8 5 12 7 Z 1016,0 - 0,0
24.04.2017 06:00:00 8,0 5,6 4 2 15 8 ZW 1016,0 - 0,0
24.04.2017 05:00:00 8,4 5,7 11 6 12 7 Z 1016,4 15 0,0
24.04.2017 04:00:00 8,8 5,9 11 6 15 8 Z 1016,8 - 0,0
24.04.2017 03:00:00 9,3 6,4 13 7 15 8 Z 1017,3 - 0,0
24.04.2017 02:00:00 9,9 6,8 9 5 12 7 ZZW 1017,6 15 0,0
24.04.2017 01:00:00 10,4 7,3 7 4 10 5 ZZW 1018,0 - 0,0
24.04.2017 00:00:00 10,9 7,8 5 3 9 5 WZW 1018,1 - 0,0
23.04.2017 23:00:00 12,3 8,8 5 3 14 7 W 1018,0 20 0,0
23.04.2017 22:00:00 14,2 10,8 10 5 15 8 W 1017,7 - 0,0
23.04.2017 21:00:00 15,5 10,7 9 5 13 7 W 1017,6 - 0,0
23.04.2017 20:00:00 17,3 10,9 7 4 13 7 W 1017,6 24 0,0
23.04.2017 19:00:00 18,4 10,7 9 5 14 8 W 1017,7 - 0,0
23.04.2017 18:00:00 18,6 10,9 9 5 14 8 W 1017,9 - 0,0
23.04.2017 17:00:00 18,5 10,8 9 5 16 9 NW 1018,2 20 0,0
23.04.2017 16:00:00 18,6 12,3 13 7 16 9 NNW 1018,5 - 0,0
23.04.2017 15:00:00 18,9 12,6 10 5 14 7 NW 1018,9 - 0,0
23.04.2017 14:00:00 18,5 11,8 8 5 12 6 NNW 1019,2 - 0,0
23.04.2017 13:00:00 17,8 10,7 7 4 10 5 N 1019,6 - 0,0
23.04.2017 12:00:00 17,7 9,1 7 4 11 6 NNO 1019,9 - 0,0
23.04.2017 11:00:00 17,9 6,7 6 3 8 5 NNO 1019,9 20 0,0
23.04.2017 10:00:00 16,6 6,1 3 1 7 4 OZO 1019,9 - 0,0
23.04.2017 09:00:00 11,7 6,0 5 3 10 5 O 1020,1 - 0,0
23.04.2017 08:00:00 7,9 3,9 5 3 16 8 Z 1020,0 20 0,0
23.04.2017 07:00:00 7,5 3,5 6 3 11 6 Z 1019,7 - 0,0
23.04.2017 06:00:00 8,3 3,5 9 5 19 10 ZZW 1019,7 - 0,0
23.04.2017 05:00:00 9,0 3,6 17 9 20 11 Z 1019,8 - 0,0
23.04.2017 04:00:00 8,6 4,0 8 5 12 6 Z 1019,9 - 0,0
23.04.2017 03:00:00 9,3 4,1 8 5 11 6 Z 1020,0 - 0,0
23.04.2017 02:00:00 9,9 4,9 4 2 9 5 ZZO 1020,3 20 0,0
23.04.2017 01:00:00 10,8 5,1 2 1 9 5 ZZO 1020,1 - 0,0
23.04.2017 00:00:00 12,1 4,6 10 6 13 7 ZZW 1020,3 - 0,0
22.04.2017 23:00:00 13,5 5,6 6 3 14 8 WNW 1020,3 20 0,0
22.04.2017 22:00:00 15,1 5,9 6 3 22 12 N 1020,2 - 0,0
22.04.2017 21:00:00 15,5 6,8 2 1 17 9 OZO 1019,9 - 0,0
22.04.2017 20:00:00 17,5 7,8 6 3 20 11 NO 1019,5 30 0,0
22.04.2017 19:00:00 19,2 7,9 3 2 16 8 NNO 1019,7 - 0,0
22.04.2017 18:00:00 19,7 7,4 6 3 14 8 NNO 1019,7 - 0,0
22.04.2017 17:00:00 19,8 8,5 6 3 16 9 ONO 1020,1 25 0,0
22.04.2017 16:00:00 20,2 9,1 11 6 25 14 NO 1020,5 - 0,0
22.04.2017 15:00:00 19,3 10,0 16 9 27 15 NNO 1021,2 - 0,0
22.04.2017 14:00:00 19,5 8,5 16 9 29 16 N 1021,7 20 0,0
22.04.2017 13:00:00 19,9 9,5 22 12 28 15 NNO 1022,3 - 0,0
22.04.2017 12:00:00 19,0 8,6 17 9 23 12 NO 1022,9 - 0,0
22.04.2017 11:00:00 20,5 4,9 8 5 27 15 O 1023,1 - 0,0
22.04.2017 10:00:00 19,8 -1,4 16 9 25 14 Z 1023,2 - 0,0
22.04.2017 09:00:00 17,8 -1,5 11 6 30 16 Z 1023,3 - 0,0
22.04.2017 08:00:00 16,2 -2,4 20 11 37 20 Z 1023,2 20 0,0
22.04.2017 07:00:00 14,7 -1,4 12 6 33 18 ZZW 1022,9 - 0,0
22.04.2017 06:00:00 15,7 -0,5 11 6 32 18 Z 1022,8 - 0,0
22.04.2017 05:00:00 15,4 -0,4 11 6 31 17 Z 1023,3 - 0,0
22.04.2017 04:00:00 14,5 1,4 16 9 36 19 ZO 1023,4 - 0,0
22.04.2017 03:00:00 15,5 0,9 16 9 33 18 ZZO 1023,9 - 0,0
22.04.2017 02:00:00 13,1 2,6 15 8 26 14 ZZO 1024,1 25 0,0

tt = temperatuur
td = dauwpunt
ff = windsnelheid
fx = windstoten
dd = windrichting
ppp = luchtdruk
vv = zicht
rr = neerslag

Weerstations in de omgeving